Regional Weather Roundup
Issued by NWS State College, PA

Home | Current Version | Previous Version | Text Only | Print | Product List | Glossary On
Versions: 1 2 3 4 5 6 7 8 9 10 11 12 13 14 15 16 17 18 19 20 21 22 23 24 25 26 27 28 29 30 31 32 33 34 35 36 37 38 39 40 41 42 43 44 45 46 47 48 49 50
000
ASUS41 KCTP 121410
RWRCTP

REGIONAL WEATHER ROUNDUP
NATIONAL WEATHER SERVICE STATE COLLEGE PA
900 AM EST TUE DEC 12 2017

Note: "fair" indicates few or no clouds below 12,000 feet with no
significant weather and/or obstructions to visibility.

* = STATION THAT DOES NOT REPORT PRECIPITATION /E.G. RAIN...SNOW...ETC/
    THUNDER OR FOG.

PAZ002>004-007>009-013>016-020>023-029>032-121500-
WESTERN PENNSYLVANIA

CITY           SKY/WX    TMP DP  RH WIND       PRES   REMARKS
ERIE           SNOW      26  21  81 W20G32    29.66R VSB 1/2 WCI  12
MEADVILLE      SNOW      25  22  88 NW18G32   29.62R VSB 1/2 WCI  11
FRANKLIN*      LGT SNOW  28  25  88 W17       29.58R FOG
NEW CASTLE     LGT SNOW  29  27  92 NW15G21   29.66R FOG
BEAVER COUNTY  FLURRIES  30  27  86 NW16G28   29.64R
BUTLER*        LGT SNOW  30  28  93 W10G17    29.62R FOG
PITTSBURGH INT LGT SNOW  33  28  81 NW22G31   29.64R
PITTSBURGH     LGT SNOW  31  28  89 W10G20    29.62R FOG
INDIANA*       CLOUDY    32  32 100 NW15G21   29.61S FOG
LATROBE        LGT SNOW  32  32 100 W16       29.62R VSB 1
WASHINGTON CO* LGT SNOW  32  28  85 W14       29.68R FOG
$$

PAZ004>006-010>012-017>019-024>028-033>037-041-042-045-046-049>053-121500-
CENTRAL PENNSYLVANIA

CITY           SKY/WX    TMP DP  RH WIND       PRES   REMARKS
BRADFORD       LGT SNOW  29  27  92 W7        29.47S FOG
DUBOIS         LGT SNOW  30  27  88 W9        29.52R FOG
CLEARFIELD     LGT SNOW  33  30  88 W9        29.53R FOG
JOHNSTOWN      LGT SNOW  31  29  92 W17G25    29.53R FOG
ALTOONA        CLOUDY    39  29  67 W14       29.55R
STATE COLLEGE  LGT SNOW  36  30  80 SW6       29.53S
WILLIAMSPORT   CLOUDY    39  31  72 VRB6      29.53F
SELINSGROVE    CLOUDY    37  31  78 SW3       29.55F
FT INDIANTOWN  PTSUNNY   37  35  94 CALM      29.56F
CAPITAL CITY   CLOUDY    37  31  78 CALM      29.57F
HARRISBURG     PTSUNNY   37  34  89 CALM      29.57F
YORK           PTSUNNY   38  32  79 CALM      29.57F
$$

PAZ038>040-043-044-047-048-054-055-060>062-067>071-121500-
EASTERN PENNSYLVANIA

CITY           SKY/WX    TMP DP  RH WIND       PRES   REMARKS
SCRANTON       CLOUDY    38  32  79 SW5       29.53F
MOUNT POCONO   CLOUDY    32  31  96 VRB7      29.52S
ALLENTOWN      CLOUDY    40  31  70 E3        29.58F
QUAKERTOWN*    CLOUDY    36  32  87 CALM      29.59F
READING        CLOUDY    40  35  83 CALM      29.57F
LANCASTER      CLOUDY    38  36  92 CALM      29.57F
COATESVILLE    CLOUDY    37  36  93 CALM      29.58F
POTTSTOWN      CLOUDY    40  33  76 CALM      29.59F
BLUE BELL      CLOUDY    43  34  70 CALM      29.60F
DOYLESTOWN     CLOUDY    39  34  82 CALM      29.58F
WILLOW GROVE   NOT AVBL
NORTH PHILA    CLOUDY    46  36  68 SE3       29.59F
PHILADELPHIA   CLOUDY    46  33  60 S9        29.58F
$$



USA.gov is the U.S. government's official web portal to all federal, state and local government web resources and services.